Wind_Speed
3 3 3 2 2 3 3 4 4 4 5 5 5 6 6 6 6 7 7 7 7 7 7 7 8 8 8 8 8 8 8 8 8 8 8 8 8 8 8 9 8 9 9
4 4 4 3 3 4 4 4 5 5 6 5 6 6 6 7 6 7 7 8 8 8 8 8 8 8 8 8 8 8 8 8 8 8 8 8 7 8 8 9 9 9 9
4 4 4 4 4 5 5 5 5 6 6 6 7 8 7 7 8 7 7 8 9 8 8 8 8 8 9 9 9 8 8 8 9 8 9 8 8 8 8 9 9 9 9
5 5 4 5 5 5 5 5 5 6 7 7 8 8 8 8 8 7 8 8 9 9 9 9 8 9 9 9 9 9 8 8 9 9 10 9 9 9 9 9 9 10 10
6 6 5 6 6 6 6 6 6 6 7 8 9 9 8 9 9 8 8 9 9 10 10 9 9 9 10 9 9 9 10 9 9 10 11 10 10 10 10 10 10 10 11
7 7 7 7 7 7 7 7 7 7 7 8 8 9 9 10 9 9 9 9 10 10 11 10 10 10 11 11 10 10 11 10 10 10 11 11 11 11 11 11 12 12 11
8 8 8 8 8 8 9 9 9 8 8 8 9 9 9 10 10 9 9 9 9 10 10 11 11 11 11 12 12 12 12 11 11 10 11 12 11 11 11 11 12 11 11
10 9 9 9 9 9 10 10 11 10 10 9 10 10 10 10 10 10 11 11 11 10 11 12 12 12 12 12 13 13 12 12 12 11 10 11 11 11 12 12 11 11 11
11 11 10 10 10 11 11 11 12 12 11 11 11 11 11 11 11 11 11 12 12 11 11 11 11 12 13 13 13 13 13 13 12 12 11 12 11 11 12 13 13 13 12
13 13 12 12 12 12 12 12 11 13 13 13 12 12 12 12 12 13 13 13 13 13 12 12 12 12 13 13 13 13 14 13 13 13 12 12 12 12 13 13 13 13 13
13 13 13 13 13 13 13 13 12 12 13 13 13 13 13 13 13 13 14 14 14 14 13 13 13 13 13 13 13 13 13 14 14 14 13 14 14 14 13 12 13 13 14
14 14 14 15 15 14 14 14 13 12 13 13 13 13 13 13 14 14 15 15 16 15 15 15 14 14 14 14 15 14 14 15 15 14 14 14 14 14 15 15 15 14 14
15 15 16 16 15 15 15 15 15 14 14 13 13 13 14 14 14 14 15 15 15 16 16 16 15 15 15 15 15 15 14 14 14 15 15 15 15 15 15 15 15 16 15
17 17 17 17 16 17 16 17 16 16 15 15 15 15 15 14 14 15 14 14 15 15 16 16 16 16 15 15 16 16 15 15 16 16 16 16 16 16 15 15 16 16 16
18 18 18 18 17 17 17 17 17 17 16 16 16 16 16 15 15 15 15 15 15 15 16 16 17 17 16 16 16 17 17 17 17 17 17 17 17 17 17 17 18 18 18
19 19 20 19 19 19 18 18 18 19 18 18 17 17 17 17 17 16 16 17 17 16 16 17 17 18 18 18 18 18 18 18 18 18 18 18 19 19 19 19 19 20 20
21 20 20 21 21 21 21 20 21 20 19 19 19 18 18 18 18 18 18 18 18 18 18 18 18 19 19 19 19 19 20 20 20 20 20 20 20 20 20 20 20 21 21
22 23 23 23 23 22 22 22 21 21 21 20 20 20 19 19 19 20 20 20 19 19 20 20 20 20 20 21 21 21 21 21 21 21 21 22 22 21 21 21 21 21 21
24 24 25 25 24 24 23 23 22 22 22 21 21 21 21 21 21 21 21 21 21 21 21 21 21 21 21 21 21 22 22 22 22 22 22 22 23 23 22 22 22 22 22
24 25 25 25 25 25 24 24 24 23 23 23 23 23 22 22 22 22 22 22 22 22 22 22 22 22 22 22 22 22 23 23 23 23 23 23 23 23 23 22 22 23 23
24 24 24 24 25 25 25 24 24 24 24 24 23 23 24 24 23 23 23 23 23 23 23 23 22 23 23 23 23 23 24 24 24 24 24 24 24 24 23 23 23 23 23
23 24 24 24 25 25 25 25 25 24 24 24 24 24 24 24 24 24 24 24 23 23 23 23 23 23 24 24 24 24 24 24 25 25 25 24 24 24 23 23 23 24 24
23 23 23 24 24 25 25 25 25 25 24 24 24 25 25 25 25 25 25 24 24 24 24 24 24 24 24 24 24 25 24 25 25 25 25 25 25 25 25 24 24 25 25
23 23 23 24 24 24 25 25 24 25 25 25 26 26 26 26 25 25 25 25 25 25 25 24 24 24 25 25 25 25 25 25 26 26 26 26 26 26 26 26 26 27 27
22 22 23 24 24 25 25 25 25 25 26 26 27 26 26 26 26 26 25 25 25 25 24 24 24 25 26 26 26 26 26 26 27 27 27 27 27 27 27 28 28 28 28
21 21 22 23 24 24 24 24 24 25 26 26 26 27 26 26 26 26 26 25 26 26 25 25 25 25 25 26 27 27 27 28 28 28 28 28 28 29 29 29 29 30 30
Wind_Direction
306 291 288 263 242 235 220 216 212 215 222 224 219 218 221 223 227 224 219 223 227 233 234 233 236 238 240 243 243 245 245 245 244 244 247 247 247 244 246 251 253 251 250
293 282 281 271 249 241 234 226 227 222 226 229 226 222 226 228 233 227 226 224 226 232 234 235 238 237 239 241 241 244 244 243 245 248 246 248 249 245 247 249 250 251 253
286 283 266 263 255 248 243 239 238 230 232 233 233 231 231 231 235 233 231 230 230 233 236 238 242 244 239 239 241 243 240 241 243 244 242 245 250 251 248 246 249 248 253
283 272 257 259 256 254 251 246 242 235 233 232 231 232 232 231 228 234 235 236 235 236 237 241 244 246 246 245 248 249 246 243 243 244 243 244 247 252 254 250 251 248 253
278 268 259 249 248 249 252 249 249 245 239 235 231 231 237 236 234 233 236 236 238 239 238 240 244 245 247 247 251 253 252 249 249 247 246 248 248 252 255 256 254 252 253
270 269 262 248 247 251 252 251 249 250 248 242 237 236 240 238 237 235 237 237 238 241 241 242 245 248 251 251 252 252 254 252 253 253 250 250 253 252 254 256 255 254 251
265 266 261 258 254 253 252 250 248 248 248 245 243 242 239 240 239 236 238 240 243 245 245 245 250 253 258 256 251 251 252 252 255 257 256 253 254 254 257 258 260 263 260
262 262 262 265 265 259 253 252 248 249 248 247 247 245 243 244 240 239 240 242 244 247 249 249 252 256 257 257 253 251 249 253 257 259 258 257 255 259 263 265 266 266 268
260 263 262 263 269 267 261 255 249 248 248 247 247 246 245 249 243 243 243 245 245 247 249 251 254 257 256 254 251 248 249 251 254 260 261 260 262 263 267 270 268 264 263
259 260 260 261 265 267 264 261 257 248 246 246 247 248 247 250 244 244 245 248 249 250 250 253 254 257 256 254 249 249 251 252 254 258 260 260 261 263 267 271 270 266 262
258 259 261 262 263 263 261 260 258 253 249 247 247 249 250 247 245 247 251 254 256 256 254 254 256 259 259 256 253 252 253 254 256 259 263 265 263 264 265 266 266 268 261
259 259 259 260 262 262 259 259 256 256 253 252 251 251 253 249 252 253 253 257 259 259 258 256 256 258 256 254 253 253 254 254 258 261 264 266 265 264 263 265 265 267 265
259 259 259 259 262 260 259 259 258 257 253 252 251 253 255 254 258 260 259 258 260 261 260 258 257 257 256 255 255 255 257 257 259 261 263 265 267 268 266 267 264 263 264
259 260 258 260 262 259 256 256 256 253 253 253 254 254 255 255 259 259 259 258 258 260 260 260 260 259 259 257 258 257 256 257 259 262 264 266 267 268 267 268 265 265 264
260 261 261 262 261 258 254 253 253 252 254 255 254 255 255 256 260 260 257 257 260 261 261 261 260 259 260 260 260 260 259 258 259 260 263 265 265 265 266 266 264 264 263
261 262 263 263 262 259 256 254 254 255 256 257 256 254 253 255 258 260 259 258 259 261 263 264 263 260 260 261 262 261 262 263 261 262 265 265 265 266 266 266 265 263 262
262 262 263 263 263 261 258 255 256 257 258 258 256 255 255 256 258 259 259 261 262 263 263 264 265 265 263 262 262 262 262 263 264 264 265 266 268 268 268 266 264 264 262
263 263 264 263 263 261 260 258 258 258 257 258 256 257 257 257 259 260 260 261 263 264 264 264 265 266 265 263 263 262 264 265 265 265 264 265 267 269 270 269 267 265 264
263 263 263 263 261 260 260 260 261 258 257 257 259 259 259 261 262 262 262 262 264 266 266 265 264 264 265 265 264 262 263 264 265 266 265 266 266 268 270 270 270 268 267
265 264 265 264 262 260 258 259 261 259 257 258 259 258 259 261 263 264 264 262 264 266 266 265 265 264 264 265 265 264 264 264 265 265 266 267 267 268 269 269 270 269 268
266 265 265 263 262 261 259 258 259 258 257 259 259 258 259 260 262 264 264 263 264 266 266 266 266 265 265 265 267 267 266 265 265 265 266 266 267 267 267 269 270 270 270
267 267 265 263 261 260 259 258 257 258 257 257 258 259 260 260 262 263 264 264 265 266 267 267 267 266 265 266 268 268 268 267 265 265 266 267 268 269 269 269 270 270 269
267 267 265 262 260 259 259 258 256 257 256 257 259 259 260 261 262 263 263 263 264 265 266 267 266 266 266 266 267 268 268 268 266 264 265 266 268 269 269 270 271 270 270
267 265 263 261 260 259 258 257 257 258 258 258 258 259 259 260 261 262 263 262 263 265 267 267 266 266 265 265 265 266 266 267 266 265 265 266 267 269 270 271 271 271 271
266 264 264 262 259 258 257 257 258 258 259 259 259 258 259 260 261 262 263 263 263 265 266 266 268 268 267 266 265 265 267 268 266 265 265 266 267 269 271 273 272 271 270
266 265 265 263 260 258 257 257 259 259 259 260 259 259 260 260 261 262 262 263 265 266 267 267 268 269 269 267 265 265 267 268 268 266 266 267 267 269 270 272 273 271 269
Height
5867 5866 5865 5864 5864 5863 5863 5863 5864 5864 5865 5866 5866 5867 5867 5867 5868 5868 5869 5870 5871 5872 5872 5873 5873 5873 5874 5874 5874 5875 5875 5876 5876 5876 5877 5877 5877 5878 5878 5879 5879 5879 5879
5866 5865 5864 5864 5863 5863 5863 5863 5863 5864 5864 5865 5865 5866 5866 5867 5867 5867 5868 5869 5870 5870 5871 5871 5871 5872 5872 5873 5873 5873 5873 5874 5874 5875 5875 5876 5876 5876 5876 5877 5877 5877 5877
5864 5864 5863 5863 5863 5862 5862 5862 5862 5863 5863 5864 5864 5865 5865 5866 5866 5867 5867 5868 5868 5869 5870 5870 5870 5870 5871 5871 5871 5872 5872 5872 5873 5873 5874 5874 5874 5874 5874 5875 5875 5875 5875
5863 5862 5862 5862 5862 5861 5861 5861 5862 5862 5862 5862 5863 5863 5864 5864 5865 5865 5866 5866 5867 5867 5868 5868 5868 5869 5869 5869 5870 5870 5870 5870 5871 5871 5872 5872 5873 5873 5873 5873 5873 5873 5873
5861 5861 5860 5860 5860 5860 5860 5860 5860 5860 5861 5861 5861 5862 5862 5863 5863 5864 5864 5865 5865 5866 5866 5866 5867 5867 5867 5868 5868 5868 5869 5869 5869 5869 5869 5870 5870 5871 5871 5871 5871 5871 5871
5859 5859 5858 5858 5858 5858 5859 5859 5859 5859 5859 5859 5859 5860 5861 5861 5862 5862 5863 5863 5863 5864 5864 5865 5865 5865 5865 5865 5866 5866 5866 5867 5867 5867 5867 5868 5868 5868 5868 5868 5869 5868 5869
5857 5857 5857 5856 5856 5856 5856 5857 5857 5857 5857 5857 5858 5858 5859 5859 5860 5860 5861 5861 5861 5862 5862 5862 5862 5863 5863 5863 5863 5864 5864 5864 5865 5865 5865 5865 5866 5866 5866 5866 5866 5866 5866
5855 5854 5854 5854 5854 5854 5854 5854 5855 5855 5855 5856 5856 5856 5857 5858 5857 5858 5858 5859 5859 5860 5860 5860 5860 5860 5860 5860 5861 5861 5861 5862 5862 5862 5862 5862 5863 5863 5863 5863 5863 5863 5863
5852 5852 5852 5852 5852 5852 5852 5852 5852 5853 5853 5853 5854 5854 5855 5855 5855 5856 5856 5857 5857 5857 5857 5857 5857 5858 5857 5858 5858 5858 5859 5859 5859 5859 5860 5860 5860 5860 5860 5860 5860 5860 5860
5849 5849 5849 5849 5849 5849 5849 5849 5849 5850 5850 5851 5851 5851 5852 5852 5853 5853 5854 5854 5854 5854 5854 5854 5854 5855 5855 5854 5855 5855 5856 5856 5856 5857 5857 5857 5857 5857 5857 5856 5856 5857 5857
5845 5845 5845 5845 5845 5845 5845 5846 5846 5846 5847 5848 5848 5849 5849 5849 5850 5850 5851 5851 5851 5851 5851 5851 5851 5852 5851 5851 5852 5852 5853 5853 5853 5854 5854 5854 5854 5854 5854 5853 5853 5854 5854
5841 5841 5842 5842 5842 5842 5842 5842 5842 5843 5844 5844 5845 5845 5846 5846 5846 5847 5847 5847 5847 5847 5848 5848 5848 5848 5848 5848 5849 5849 5849 5850 5850 5850 5851 5851 5851 5851 5851 5851 5851 5851 5851
5837 5838 5838 5838 5838 5838 5839 5839 5839 5840 5840 5841 5842 5842 5842 5843 5843 5843 5843 5843 5843 5843 5843 5844 5844 5845 5845 5845 5845 5846 5846 5846 5847 5847 5847 5847 5847 5847 5847 5847 5847 5848 5848
5833 5833 5833 5834 5834 5834 5834 5835 5835 5836 5837 5837 5838 5838 5839 5839 5839 5839 5839 5839 5839 5839 5840 5840 5840 5840 5841 5841 5842 5842 5842 5843 5843 5843 5843 5844 5844 5844 5844 5844 5844 5844 5844
5828 5828 5828 5829 5829 5829 5830 5830 5831 5832 5833 5833 5834 5834 5834 5835 5835 5835 5835 5835 5836 5836 5836 5836 5836 5837 5837 5837 5837 5838 5838 5839 5839 5839 5839 5839 5840 5840 5840 5840 5840 5840 5840
5823 5823 5823 5824 5824 5824 5825 5825 5826 5827 5828 5829 5829 5829 5830 5830 5830 5831 5831 5831 5831 5832 5832 5832 5832 5832 5833 5833 5833 5834 5834 5834 5834 5834 5835 5835 5835 5835 5835 5835 5836 5836 5836
5818 5818 5818 5818 5819 5820 5820 5821 5822 5822 5823 5824 5824 5825 5825 5826 5826 5826 5826 5827 5827 5827 5827 5827 5827 5827 5828 5828 5828 5828 5829 5829 5830 5830 5830 5830 5830 5830 5830 5830 5830 5831 5831
5812 5812 5812 5813 5813 5814 5815 5815 5816 5817 5818 5818 5819 5820 5820 5821 5821 5821 5822 5822 5822 5822 5822 5822 5822 5822 5822 5823 5823 5823 5823 5824 5824 5825 5825 5825 5825 5825 5825 5825 5825 5825 5825
5806 5806 5806 5806 5807 5808 5809 5809 5810 5811 5812 5813 5813 5814 5815 5815 5816 5816 5816 5817 5817 5817 5817 5817 5817 5817 5817 5817 5817 5818 5818 5818 5819 5819 5819 5819 5820 5820 5820 5820 5820 5820 5820
5799 5799 5799 5800 5801 5801 5802 5803 5804 5805 5806 5806 5807 5808 5809 5809 5810 5810 5810 5811 5811 5811 5811 5811 5811 5811 5811 5811 5812 5812 5812 5813 5813 5813 5813 5813 5813 5814 5814 5814 5814 5814 5814
5792 5792 5793 5793 5794 5795 5796 5796 5797 5798 5799 5800 5801 5801 5802 5803 5803 5804 5804 5805 5805 5805 5805 5805 5805 5805 5805 5806 5806 5806 5806 5806 5806 5806 5807 5807 5807 5807 5807 5807 5807 5807 5807
5785 5785 5786 5786 5787 5788 5789 5790 5791 5792 5793 5793 5794 5794 5795 5796 5797 5797 5798 5798 5798 5798 5798 5798 5798 5799 5799 5799 5799 5799 5800 5800 5800 5801 5800 5800 5800 5801 5801 5801 5801 5801 5801
5777 5778 5779 5779 5780 5781 5782 5783 5784 5785 5786 5786 5787 5788 5789 5789 5790 5790 5791 5791 5791 5791 5792 5792 5792 5792 5793 5793 5793 5793 5793 5793 5793 5794 5794 5794 5794 5794 5794 5794 5794 5794 5794
5770 5771 5771 5772 5773 5774 5775 5776 5777 5778 5779 5779 5780 5781 5782 5782 5783 5783 5784 5784 5784 5784 5785 5785 5785 5786 5786 5786 5786 5786 5786 5786 5786 5786 5787 5787 5787 5787 5787 5787 5787 5787 5787
5763 5764 5765 5765 5766 5767 5768 5769 5770 5771 5772 5773 5773 5774 5774 5775 5776 5776 5777 5777 5777 5777 5777 5778 5778 5778 5778 5778 5778 5779 5779 5779 5779 5779 5779 5780 5779 5779 5779 5779 5779 5779 5779
5757 5758 5758 5759 5759 5760 5761 5762 5763 5763 5764 5765 5766 5767 5767 5768 5769 5769 5769 5769 5769 5770 5770 5770 5770 5770 5770 5770 5770 5771 5771 5771 5771 5772 5772 5772 5771 5771 5771 5771 5771 5770 5770